Preview of NWS' New Version of Forecast
This preview is not operational and should not be used for support decisions.

Regional Weather Roundup (RWR)

Issued by Philadelphia/Mt Holly (PHI)

                            
000
ASUS41 KPHI 171512
RWRPHI

REGIONAL WEATHER ROUNDUP
NATIONAL WEATHER SERVICE MOUNT HOLLY NJ
1000 AM EST THU JAN 17 2019

NOTE:  "FAIR" INDICATES FEW OR NO CLOUDS BELOW 12,000 FEET WITH NO
SIGNIFICANT WEATHER AND/OR OBSTRUCTIONS TO VISIBILITY.

 * = STATION DOES NOT REPORT PRECIPITATION (E.G. RAIN, SNOW, ETC.) 
        OR FOG.

NJZ015>026-171600-
SOUTHERN NEW JERSEY
  
CITY           SKY/WX    TMP DP  RH WIND       PRES   REMARKS
POMONA         FAIR      30  10  43 NE10      30.41R WCI  21          
WILDWOOD*      FAIR      33  19  56 NE6       30.41R WCI  28          
MILLVILLE      FAIR      31  18  58 NE7       30.40R WCI  24          
WRIGHTSTOWN    FAIR      29   4  34 N7        30.38R WCI  22          
MOUNT HOLLY    FAIR      29   7  39 N7        30.42R WCI  22          
TRENTON        FAIR      29   5  36 N8        30.41R WCI  21          

$$
NJZ001>014-171600-
NORTHERN NEW JERSEY
  
CITY           SKY/WX    TMP DP  RH WIND       PRES   REMARKS
SUSSEX         FAIR      23  10  57 CALM      30.40R                  
ANDOVER*         N/A     23   9  55 VRB3      30.39R                  
MORRISTOWN     PTSUNNY   27  12  54 E5        30.43R WCI  21          
NEWARK         PTSUNNY   28   9  44 N8        30.43R WCI  20          
TETERBORO      FAIR      27  10  49 NE12G21   30.43R WCI  17          
CALDWELL       FAIR      24   9  52 NE6       30.43R WCI  17          
SOMERVILLE     FAIR      28   5  37 NW5       30.41R WCI  23          
ALLAIRE*       FAIR      30  12  47 N7        30.42R WCI  23          
TOMS RIVER*    FAIR      29   8  41 N8        30.42  WCI  21          

$$
PAZ043-044-047-054-055-060>062-066>071-171600-
EASTERN PENNSYLVANIA
  
CITY           SKY/WX    TMP DP  RH WIND       PRES   REMARKS
PHILADELPHIA   PTSUNNY   30  11  45 NE8       30.43R WCI  22          
NORTH PHILA    FAIR      31   5  33 N8        30.43R WCI  23          
BLUE BELL*     FAIR      27   9  46 NE3       30.42R                  
DOYLESTOWN     FAIR      28   6  39 N8        30.39R WCI  20          
QUAKERTOWN*    SUNNY     27   7  43 NE6       30.39  WCI  20          
PERKASIE*      FAIR      27   7  43 E8        30.39S WCI  18          
POTTSTOWN      FAIR      26  11  52 NE6       30.41S WCI  19          
LANCASTER      FAIR      28  15  58 E7        30.39R WCI  21          
COATESVILLE    FAIR      27  14  59 CALM      30.38S                  
READING        FAIR      26  11  52 NE6       30.39S WCI  19          
ALLENTOWN      FAIR      27   8  44 E7        30.40S WCI  19          
MOUNT POCONO   FAIR      19   1  45 VRB3      30.28R                  
HAZLETON       FAIR      27   9  46 CALM      30.33S                  
LEHIGHTON      FAIR      25   9  50 CALM      30.40R                  
WILKES BARRE   FAIR      20   8  60 N5        30.36R WCI  13          

$$
DEZALL-MDZ008-012-015-019-020-171600-
DELAWARE AND EASTERN MARYLAND
  
CITY           SKY/WX    TMP DP  RH WIND       PRES   REMARKS
WILMINGTON     FAIR      31  16  54 NE9       30.41R WCI  23          
GEORGETOWN     FAIR      37  23  56 NE13      30.40R WCI  29          
EASTON         PTSUNNY   36  21  55 E8        30.42R WCI  29          
ABERDEEN       CLOUDY    30  19  64 NE9       30.40R WCI  22          
PATUXENT       PTSUNNY   36  28  73 E10       30.38  WCI  28          
OCEAN CITY     FAIR      39  28  64 NE7       30.39R WCI  34          
WALLOPS ISLAND FAIR      38  27  64 NE9       30.39R WCI  31          
CAMBRIDGE      SUNNY     36  25  64 VRB6G13   30.40R WCI  31          
SALISBURY      FAIR      35  28  75 E7        30.39R WCI  29          

$$
PAZ001-021-NYZ056-072-MDZ011-DCZ001-171600-
OTHER NEARBY LOCATIONS
  
CITY           SKY/WX    TMP DP  RH WIND       PRES   REMARKS
HARRISBURG     FAIR      29  15  56 E7        30.38R WCI  22          
STATE COLLEGE  SUNNY     25  16  68 CALM      30.31R                  
WILLIAMSPORT   FAIR      23  11  60 SE5       30.38S WCI  17          
BINGHAMTON     FAIR      12   8  84 E3        30.29S                  
NEW YORK CITY  FAIR      27  10  49 MISG      30.44R                  
BALTIMORE      CLOUDY    33  21  61 E10       30.38R WCI  25          
WASHINGTON DC  CLOUDY    36  22  56 E10       30.38R WCI  28          

$$